Location: ?????????
(55.6553°N, 38.9075°E)
Time: 09:36:44
(UTC+00:00)

Cosmos 2058 Rocket - Pass Details

Date: 18 October 2019
Orbit: 611 x 638 km, 82.5° (Epoch: 21 November)

Event Time Altitude Azimuth Distance (km) Brightness Sun altitude
Rises 03:01:10 0° 344° (NNW) 2,901 6.3 -9.0°
Reaches altitude 10° 03:03:27 10° 338° (NNW) 1,994 5.4 -8.7°
Maximum altitude 03:07:40 45° 266° (W) 847 3.3 -8.1°
Drops below altitude 10° 03:11:52 10° 194° (SSW) 1,993 5.6 -7.5°
Sets 03:14:10 0° 188° (S) 2,899 6.5 -7.2°
